カタログに戻る

STARLINK-3885

運用中通信VLEO
NORAD 52463·PAYLOAD·🇺🇸 United States

打ち上げ May 6, 2022 から Cape Canaveral Space Force Station

Loading…

次のパス (今後24時間)

TLE

最新Source: CelesTrak SupGP

元期: Sep 14, 2026, 20:38 UTC

1 52463C 22049N   26257.86020833  .00020931  00000+0  59890-3 0  2574
2 52463  53.1582 270.3925 0001312  91.8566 199.0241 15.35385067    16

AllMySatでSTARLINK-3885をリアルタイム追跡

Download on the App Store